Weather History for KVBT - April, 2014

Change the Weather History Date:

Thursday, April 3, 2014

  Actual Average Record
Temperature  
Mean Temperature 66 °F -  
Max Temperature 80 °F 65 °F 82 °F (2011)
Min Temperature 48 °F 41 °F 21 °F (1987)
Growing Degree Days 16 (Base 50)    
Moisture  
Dew Point 59 °F    
Average Humidity 71    
Maximum Humidity 82    
Minimum Humidity 48    
Precipitation  
Precipitation 0.18 in - - ()
Sea Level Pressure  
Sea Level Pressure 29.68 in    
Wind  
Wind Speed 13 mph (SSW)    
Max Wind Speed 23 mph    
Max Gust Speed 30 mph    
Visibility 10 miles    
Events Thunderstorm    
Averages and records for this station are not official NWS values.
T = Trace of Precipitation, MM = Missing Value Source: NWS Daily Summary

Daily Weather History Graph

Daily Weather History Graph

Search for Another Location

Airport or City:

Trip Planner

Search our weather history database for the weather conditions in past years. The results will help you decide how hot, cold, wet, or windy it might be!

Date:

Astronomy

Apr. 03, 2014 Rise Set
Actual Time 7:00 AM CDT 7:40 PM CDT
Civil Twilight 6:34 AM CDT 8:06 PM CDT
Nautical Twilight 6:03 AM CDT 8:37 PM CDT
Astronomical Twilight 5:32 AM CDT 9:08 PM CDT
Moon 9:35 AM CDT (4/3) 11:54 PM CDT (4/3)
Length of Visible Light 13h 32m
Length of Day
12h 40m
Waxing Crescent, 17% of the Moon is Illuminated
Apr 3
Waxing Crescent
Apr 7
First Quarter
Apr 15
Full
Apr 22
Last Quarter
Apr 29
New

Hourly Weather History & Observations

Time (CDT) Temp. Heat Index Dew Point Humidity Pressure Visibility Wind Dir Wind Speed Gust Speed Precip Events Conditions
12:15 AM 69.8 °F - 62.6 °F 78% 29.72 in 10.0 mi South 11.5 mph - N/A   Mostly Cloudy
12:35 AM 69.8 °F - 62.6 °F 78% 29.72 in 10.0 mi South 10.4 mph - N/A   Mostly Cloudy
12:55 AM 69.8 °F - 62.6 °F 78% 29.71 in 10.0 mi South 11.5 mph 17.3 mph N/A   Overcast
1:15 AM 69.8 °F - 62.6 °F 78% 29.70 in 10.0 mi South 12.7 mph 21.9 mph N/A   Scattered Clouds
1:35 AM 69.8 °F - 62.6 °F 78% 29.70 in 10.0 mi South 17.3 mph 23.0 mph N/A   Mostly Cloudy
1:55 AM 69.8 °F - 62.6 °F 78% 29.69 in 10.0 mi South 15.0 mph 23.0 mph N/A   Overcast
2:35 AM 69.8 °F - 60.8 °F 73% 29.68 in 10.0 mi South 13.8 mph 23.0 mph N/A   Overcast
2:55 AM 69.8 °F - 60.8 °F 73% 29.69 in 10.0 mi South 11.5 mph - N/A   Overcast
3:15 AM 69.8 °F - 60.8 °F 73% 29.69 in 10.0 mi South 11.5 mph 18.4 mph N/A   Mostly Cloudy
3:35 AM 69.8 °F - 60.8 °F 73% 29.69 in 10.0 mi South 10.4 mph 17.3 mph N/A   Mostly Cloudy
3:55 AM 69.8 °F - 60.8 °F 73% 29.68 in 10.0 mi South 10.4 mph 16.1 mph N/A   Overcast
4:15 AM 69.8 °F - 60.8 °F 73% 29.67 in 10.0 mi South 10.4 mph 17.3 mph N/A   Overcast
4:35 AM 69.8 °F - 62.6 °F 78% 29.66 in 10.0 mi South 13.8 mph 21.9 mph N/A   Mostly Cloudy
4:55 AM 69.8 °F - 60.8 °F 73% 29.66 in 10.0 mi South 12.7 mph - N/A   Scattered Clouds
5:15 AM 69.8 °F - 62.6 °F 78% 29.66 in 10.0 mi South 11.5 mph 16.1 mph N/A   Mostly Cloudy
5:35 AM 69.8 °F - 62.6 °F 78% 29.67 in 10.0 mi SSW 11.5 mph 18.4 mph N/A   Overcast
5:55 AM 69.8 °F - 62.6 °F 78% 29.67 in 10.0 mi SSW 12.7 mph - N/A   Overcast
6:15 AM 69.8 °F - 62.6 °F 78% 29.68 in 10.0 mi SSW 12.7 mph 20.7 mph N/A   Mostly Cloudy
6:35 AM 69.8 °F - 62.6 °F 78% 29.68 in 10.0 mi SSW 15.0 mph 20.7 mph N/A   Mostly Cloudy
6:55 AM 69.8 °F - 62.6 °F 78% 29.69 in 10.0 mi South 12.7 mph - N/A   Overcast
7:15 AM 69.8 °F - 62.6 °F 78% 29.69 in 10.0 mi South 12.7 mph - N/A   Overcast
7:35 AM 69.8 °F - 62.6 °F 78% 29.70 in 10.0 mi South 13.8 mph 18.4 mph N/A   Overcast
7:55 AM 69.8 °F - 62.6 °F 78% 29.70 in 10.0 mi South 10.4 mph 17.3 mph N/A   Overcast
8:15 AM 71.6 °F - 62.6 °F 73% 29.69 in 10.0 mi South 13.8 mph 18.4 mph N/A   Mostly Cloudy
8:35 AM 71.6 °F - 62.6 °F 73% 29.68 in 10.0 mi South 11.5 mph 19.6 mph N/A   Mostly Cloudy
8:55 AM 71.6 °F - 62.6 °F 73% 29.68 in 10.0 mi South 13.8 mph 19.6 mph N/A   Mostly Cloudy
9:15 AM 71.6 °F - 62.6 °F 73% 29.68 in 10.0 mi South 12.7 mph - N/A   Overcast
9:35 AM 71.6 °F - 62.6 °F 73% 29.67 in 10.0 mi South 11.5 mph 18.4 mph N/A   Overcast
9:55 AM 71.6 °F - 62.6 °F 73% 29.67 in 10.0 mi South 11.5 mph 17.3 mph N/A   Overcast
10:15 AM 71.6 °F - 62.6 °F 73% 29.66 in 9.0 mi South 12.7 mph - N/A   Overcast
10:35 AM 73.4 °F - 64.4 °F 73% 29.67 in 10.0 mi South 13.8 mph 23.0 mph N/A   Overcast
10:55 AM 71.6 °F - 62.6 °F 73% 29.67 in 10.0 mi South 19.6 mph 26.5 mph N/A   Overcast
11:15 AM 71.6 °F - 62.6 °F 73% 29.66 in 10.0 mi South 13.8 mph 25.3 mph N/A   Overcast
11:35 AM 73.4 °F - 62.6 °F 69% 29.67 in 10.0 mi South 17.3 mph 23.0 mph N/A   Overcast
11:55 AM 73.4 °F - 62.6 °F 69% 29.67 in 10.0 mi SSW 13.8 mph 18.4 mph N/A   Overcast
12:15 PM 73.4 °F - 62.6 °F 69% 29.68 in 10.0 mi South 13.8 mph 25.3 mph N/A   Overcast
12:35 PM 73.4 °F - 62.6 °F 69% 29.67 in 10.0 mi South 15.0 mph 25.3 mph N/A   Overcast
1:15 PM 73.4 °F - 62.6 °F 69% 29.67 in 10.0 mi South 15.0 mph 20.7 mph N/A   Unknown
1:35 PM 75.2 °F - 62.6 °F 65% 29.66 in 10.0 mi South 13.8 mph 23.0 mph N/A   Mostly Cloudy
1:55 PM 75.2 °F - 62.6 °F 65% 29.66 in 10.0 mi South 13.8 mph 21.9 mph N/A   Mostly Cloudy
2:15 PM 75.2 °F - 62.6 °F 65% 29.65 in 10.0 mi South 15.0 mph 23.0 mph N/A   Mostly Cloudy
2:35 PM 77.0 °F - 60.8 °F 57% 29.65 in 10.0 mi SSW 12.7 mph 23.0 mph N/A   Mostly Cloudy
2:55 PM 78.8 °F - 62.6 °F 57% 29.62 in 10.0 mi SSW 16.1 mph 27.6 mph N/A   Mostly Cloudy
3:15 PM 78.8 °F - 59.0 °F 51% 29.61 in 10.0 mi SSW 19.6 mph 29.9 mph N/A   Mostly Cloudy
3:35 PM 80.6 °F 81.1 °F 59.0 °F 48% 29.62 in 10.0 mi SSW 23.0 mph 29.9 mph N/A   Mostly Cloudy
3:55 PM 80.6 °F 81.1 °F 59.0 °F 48% 29.61 in 10.0 mi SSW 18.4 mph 26.5 mph N/A   Mostly Cloudy
4:15 PM 77.0 °F - 57.2 °F 50% 29.61 in 10.0 mi SSW 19.6 mph 29.9 mph N/A   Clear
4:35 PM 75.2 °F - 57.2 °F 53% 29.63 in 10.0 mi SSW 16.1 mph 26.5 mph N/A   Clear
4:55 PM 75.2 °F - 57.2 °F 53% 29.64 in 10.0 mi SSW 15.0 mph - N/A   Partly Cloudy
5:15 PM 73.4 °F - 60.8 °F 65% 29.64 in 10.0 mi SSW 13.8 mph - N/A   Partly Cloudy
5:55 PM 64.4 °F - 55.4 °F 73% 29.69 in 10.0 mi West 8.1 mph 20.7 mph N/A Thunderstorm Overcast
6:15 PM 60.8 °F - 51.8 °F 72% 29.69 in 10.0 mi South 18.4 mph 23.0 mph 0.11 in Thunderstorm Thunderstorm
6:35 PM 57.2 °F - 48.2 °F 72% 29.67 in 10.0 mi SSW 23.0 mph 29.9 mph 0.13 in Thunderstorm Mostly Cloudy
6:55 PM 62.6 °F - 48.2 °F 59% 29.60 in 9.0 mi South 16.1 mph 25.3 mph 0.15 in Thunderstorm Thunderstorm
7:15 PM 60.8 °F - 48.2 °F 63% 29.66 in 10.0 mi South 10.4 mph - N/A Thunderstorm Mostly Cloudy
7:35 PM 57.2 °F - 50.0 °F 77% 29.67 in 10.0 mi SSE 17.3 mph 24.2 mph 0.01 in Thunderstorm Overcast
7:55 PM 57.2 °F - 48.2 °F 72% 29.68 in 10.0 mi SSE 3.5 mph - 0.01 in   Mostly Cloudy
8:15 PM 57.2 °F - 50.0 °F 77% 29.68 in 10.0 mi SE 10.4 mph - 0.01 in Thunderstorm Mostly Cloudy
8:35 PM 57.2 °F - 50.0 °F 77% 29.68 in 10.0 mi SSW 5.8 mph - 0.01 in   Mostly Cloudy
8:55 PM 57.2 °F - 50.0 °F 77% 29.67 in 10.0 mi WNW 4.6 mph - 0.01 in   Mostly Cloudy
9:15 PM 57.2 °F - 51.8 °F 82% 29.71 in 10.0 mi WSW 8.1 mph - N/A   Overcast
9:35 PM 59.0 °F - 51.8 °F 77% 29.72 in 10.0 mi WSW 8.1 mph - 0.01 in Thunderstorm Overcast
10:55 PM 53.6 °F - 44.6 °F 72% 29.79 in 10.0 mi NW 11.5 mph 20.7 mph N/A   Scattered Clouds
11:15 PM 53.6 °F - 44.6 °F 72% 29.79 in 10.0 mi WNW 5.8 mph - N/A   Scattered Clouds
11:35 PM 51.8 °F - 42.8 °F 71% 29.81 in 10.0 mi NW 15.0 mph 21.9 mph N/A   Mostly Cloudy
11:55 PM 48.2 °F - 39.2 °F 71% 29.82 in 10.0 mi NW 13.8 mph 25.3 mph N/A   Mostly Cloudy